Miscellaneous Local Product
Issued by NWS Hastings, NE

Home | Current Version | Previous Version | Text Only | Print | Product List | Glossary Off
Versions: 1 2 3 4 5 6 7 8 9 10 11 12 13 14 15 16 17 18 19 20 21 22 23 24 25 26 27 28 29 30 31 32 33 34 35 36 37 38 39 40 41 42 43 44 45 46 47 48 49 50

000
AXUS43 KGID 251902
MISGRI

GID CWA HOURLY WEATHER ROUNDUP
NATIONAL WEATHER SERVICE HASTINGS NE
200 PM CDT FRI JUL 25 2014

NOTE: "FAIR" INDICATES FEW OR NO CLOUDS BELOW 12,000 FEET WITH NO
SIGNIFICANT WEATHER AND/OR OBSTRUCTIONS TO VISIBILITY.

...SOUTH CENTRAL NEBRASKA...

CITY           SKY/WX    TMP DP  RH WIND       PRES   REMARKS
GRAND ISLAND   MOSUNNY   92  67  43 NW13      29.80S HX  95
HASTINGS       MOSUNNY   91  64  40 NW12      29.80S HX  92
KEARNEY        SUNNY     90  66  45 NW13      29.84R HX  92
ORD            MOSUNNY   87  70  56 N8        29.82R HX  92
YORK           MOSUNNY   90  72  55 W8        29.77S HX  96
AURORA         MOSUNNY   89  70  51 W10       29.79R HX  94
LEXINGTON      MOSUNNY   89  68  49 N8        29.86S HX  93
HOLDREGE       PTSUNNY   89  67  48 N9        29.84S HX  92
HEBRON         SUNNY     95  64  35 SW5       29.76F HX  97

...NEBRASKA PANHANDLE...

CITY           SKY/WX    TMP DP  RH WIND       PRES   REMARKS
CHADRON        SUNNY     82  40  22 E9        29.97F
ALLIANCE       MOSUNNY   85  44  23 NE10G17   30.00F
SCOTTSBLUFF    PTSUNNY   82  44  26 SE7       30.01F
SIDNEY         PTSUNNY   87  49  26 N8        30.04S

...WESTERN AND NORTH CENTRAL NEBRASKA...

CITY           SKY/WX    TMP DP  RH WIND       PRES   REMARKS
VALENTINE      SUNNY     86  64  47 N16       29.89F
AINSWORTH      SUNNY     83  66  56 NW14      29.88F
ONEILL         MOSUNNY   89  64  42 N10       29.82S HX  90
BROKEN BOW     MOSUNNY   87  70  56 N13       29.87R HX  92
IMPERIAL       SUNNY     86  61  42 N10       29.96S
NORTH PLATTE   MOSUNNY   89  65  44 N12       29.90S HX  91
MCCOOK         MOSUNNY   91  65  41 N13       29.88S HX  93

...EASTERN NEBRASKA...

CITY           SKY/WX    TMP DP  RH WIND       PRES   REMARKS
NORFOLK        MOSUNNY   90  71  53 NW10      29.76R HX  96
SO SIOUX CITY  SUNNY     84  71  65 S3        29.77R
COLUMBUS       MOSUNNY   90  72  55 W8        29.76R HX  96
ALBION         SUNNY     86  71  61 NW10      29.79S HX  91
OMAHA EPPLEY   MOSUNNY   89  72  56 S13       29.73F HX  96
OFFUTT AFB     MOSUNNY   89  78  70 SE9       29.73F HX 102
MILLARD        SUNNY     89  76  65 SE12      29.72F HX 100
LINCOLN        MOSUNNY   97  70  41 W8        29.74S HX 103
NEBRASKA CITY  SUNNY     95  68  41 SW9       29.74F HX  99
BEATRICE       SUNNY     95  73  48 W8        29.75F HX 103
FALLS CITY     SUNNY     98  72  42 S12G21    29.75S HX 107

...NORTHERN KANSAS...

CITY           SKY/WX    TMP DP  RH WIND       PRES   REMARKS
GOODLAND       SUNNY     93  61  34 N16       29.96F HX  93
HILL CITY      SUNNY    102  58  23 NE8       29.82R HX 102
NORTON         CLEAR     95  54  24 NW10G17   29.84R HX  93
PHILLIPSBURG   SUNNY     99  55  23 NE3       29.79F HX  97
SMITH CENTER   SUNNY     97  61  30 CALM      29.79S HX  97
HAYS           SUNNY     97  64  34 SW3       29.80F HX  99
RUSSELL        SUNNY     99  63  30 S20       29.78F HX 101
CONCORDIA      MOSUNNY   98  66  34 SW13      29.77S HX 101
SALINA         SUNNY    103  64  28 SW23G29   29.77F HX 106
TOPEKA         SUNNY    100  68  35 SW10G21   29.80S HX 105



USA.gov is the U.S. government's official web portal to all federal, state and local government web resources and services.